Location: Friaudour
(46.0460°N, 1.2873°E)
Time: 21:12:04
(UTC+00:00)

Resurs 1-4 Rocket - Pass Details

Date: 14 July 2020
Orbit: 799 x 814 km, 98.6° (Epoch: 14 August)

Event Time Altitude Azimuth Distance (km) Brightness Sun altitude
Rises 01:22:14 0° 16° (NNE) 3,348 6.9 -19.8°
Reaches altitude 10° 01:24:37 10° 20° (NNE) 2,410 5.8 -19.7°
Maximum altitude 01:29:55 65° 102° (ESE) 889 2.3 -19.4°
Enters shadow 01:32:22 32° 174° (S) 1,361 2.8 -19.2°
